Regional Weather Roundup
Issued by NWS

Home | Current Version | Previous Version | Text Only | Print | Product List | Glossary On
Versions: 1 2 3 4 5 6 7 8 9 10 11 12 13 14 15 16 17 18 19 20 21 22 23 24 25 26 27 28 29 30 31 32 33 34 35 36 37 38 39 40 41 42 43 44 45 46 47 48 49 50
205
ASUS44 KLIX 221801
RWRLA
LOUISIANA WEATHER ROUNDUP
NATIONAL WEATHER SERVICE NEW ORLEANS LA
100 PM CDT TUE JUL 22 2014

NOTE: "FAIR" INDICATES FEW OR NO CLOUDS BELOW 12,000 FEET WITH NO
      SIGNIFICANT WEATHER AND/OR OBSTRUCTIONS TO VISIBILITY.
      SKY/WX - SKY CONDITION AND SIGNIFICANT WEATHER.
      TMP - AIR TEMPERATURE.    DP   - DEWPOINT TEMPERATURE.
      RH  - RELATIVE HUMIDITY.  PRES - PRESSURE.
      HX  - HEAT INDEX.         WCI  - WIND CHILL INDEX.

*  THESE STATIONS ARE NOT NWS OR FAA STATIONS AND ARE NOT UNDER
   NWS QUALITY CONTROL.

LAZ040-048-061>063-065-066-069-221900-
SOUTHEAST LOUISIANA

CITY           SKY/WX    TMP DP  RH WIND       PRES   REMARKS
N.O. AUDUBON   NOT AVBL
N.O. INTL ARPT PTSUNNY   89  74  60 NE9       30.03S THUNDER HX  98
6HR MIN TEMP:  77; 6HR MAX TEMP:  89; 6HR PCP: TRACE;

N.O. LAKEFRONT MOSUNNY   87  73  62 E6        30.04S
6HR MIN TEMP:  79; 6HR MAX TEMP:  87;

N.O. DOWNTOWN* MOCLDY    86  70  58 SW9G20    30.04F
6HR MIN TEMP:  81; 6HR MAX TEMP:  88;

SLIDELL        MOSUNNY   89  67  47 NW5       30.02F
6HR MIN TEMP:  73; 6HR MAX TEMP:  90;

BATON ROUGE    MOSUNNY   88  68  51 CALM      30.04S
6HR MIN TEMP:  71; 6HR MAX TEMP:  89;

BOOTHVILLE     MOSUNNY   87  73  62 S7        30.04F
6HR MIN TEMP:  78; 6HR MAX TEMP:  88;

BELLE CHASSE   NOT AVBL
BOGALUSA*      FAIR      88  72  59 N7        30.05S
6HR MIN TEMP:  72; 6HR MAX TEMP:  88;

GALLIANO*      NOT AVBL
NEW ROADS*     FAIR      86  70  59 MISG      30.04F
6HR MIN TEMP:  70; 6HR MAX TEMP:  87; 6HR PCP:  0.01;

GONZALES*      MOCLDY    85  72  64 CALM      30.03S
6HR MIN TEMP:  73; 6HR MAX TEMP:  86;

HAMMOND*       MOSUNNY   88  66  48 NE3       30.05S
HOUMA*         MOSUNNY   90  72  55 NW6       30.03S HX  96
PORT FOURCHON* MOCLDY    86  77  74 SW7       30.06R HX  97

$$

LAZ041-044-053-054-221900-
SOUTHWEST LOUISIANA

CITY           SKY/WX    TMP DP  RH WIND       PRES   REMARKS
LAKE CHARLES   PTSUNNY   88  73  61 VRB3      30.04S HX  95
6HR MIN TEMP:  76; 6HR MAX TEMP:  89;

LAFAYETTE      PTSUNNY   89  70  53 N9        30.04S
6HR MIN TEMP:  75; 6HR MAX TEMP:  89;

PATTERSON      PTSUNNY   88  77  70 S5        30.07S HX 100
6HR MIN TEMP:  75; 6HR MAX TEMP:  90;

SALT POINT       N/A     90  80  72 VRB5      30.02F HX 107
6HR MIN TEMP:  80; 6HR MAX TEMP:  90;

NEW IBERIA     MOSUNNY   90  74  59 NE8       30.04S HX  99
6HR MIN TEMP:  77; 6HR MAX TEMP:  90;

CHENAULT AIRPK MOSUNNY   86  72  62 CALM      30.05S

$$

LAZ027-028-221900-
CENTRAL LOUISIANA

CITY           SKY/WX    TMP DP  RH WIND       PRES   REMARKS
FORT POLK      MOSUNNY   86  66  51 N6        30.06S
ALEXANDRIA INT MOSUNNY   88  70  55 CALM      30.04S
6HR MIN TEMP:  69; 6HR MAX TEMP:  89; 6HR PCP: TRACE;

ALEXANDRIA     SUNNY     91  68  46 VRB6      30.05S HX  95
6HR MIN TEMP:  68; 6HR MAX TEMP:  91;


$$

LAZ001-002-221900-
NORTHWEST LOUISIANA

CITY           SKY/WX    TMP DP  RH WIND       PRES   REMARKS
SHREVEPORT     PTSUNNY   87  68  52 VRB3      30.07S
6HR MIN TEMP:  69; 6HR MAX TEMP:  89;

BARKSDALE AFB  MOSUNNY   86  69  56 CALM      30.08S
6HR MIN TEMP:  68; 6HR MAX TEMP:  86;

DTN SHREVEPORT MOSUNNY   86  67  52 NE5       30.07F
6HR MIN TEMP:  69; 6HR MAX TEMP:  87;


$$

LAZ014-016-221900-
NORTHEAST LOUISIANA

CITY           SKY/WX    TMP DP  RH WIND       PRES   REMARKS
MONROE         MOSUNNY   89  68  49 E5        30.08R
6HR MIN TEMP:  70; 6HR MAX TEMP:  90;

TALLULAH       MOSUNNY   89  72  56 CALM      30.06S HX  96

$$




USA.gov is the U.S. government's official web portal to all federal, state and local government web resources and services.